Fortunia — V2OG3 — position and weather

sailwx.info

Track history (hours):
 
Tides and Currents Weather Stations Pressure Air Temp Water Temp Dewpoint Dewpoint Depression Visibility Wind Speed Wind Dir Waves Ship Positions

Fortunia

Last reported at 2014-Sep-22 20:13 UTC. Time now 2014-Sep-22 22:23 UTC.
Position N 39°55' E 001°13'.

Length 121 m; draft 5.5 m.

Type: Ship. MMSI: 304010638.

Date/timePositionNaut miles runAvg speedWind from/ knotsBaromVisibWave heightAir tempDewpointWater temp
2014-Sep-22 20:13N 39°55' E 001°13'811.7
2014-Sep-22 19:33N 40°02' E 001°18'1111.4
2014-Sep-22 18:33N 40°12' E 001°25'1111.3
2014-Sep-22 17:33N 40°22' E 001°32'1111.1
2014-Sep-22 16:33N 40°32' E 001°39'1111.0
2014-Sep-22 15:33N 40°41' E 001°46'1111.3
2014-Sep-22 14:33N 40°51' E 001°53'1411.3
2014-Sep-22 13:19N 41°03' E 002°01'19 1.9
2014-Sep-22 03:08N 41°21' E 002°10'0 0.0
2014-Sep-22 01:19N 41°21' E 002°10'0 0.0
2014-Sep-21 23:12N 41°21' E 002°10'0 0.0
2014-Sep-21 21:30N 41°21' E 002°10'0 0.0
2014-Sep-21 20:29N 41°21' E 002°10'0 0.0
2014-Sep-21 18:31N 41°21' E 002°10'0 0.0
2014-Sep-21 17:33N 41°21' E 002°10'0 0.0
2014-Sep-21 16:33N 41°21' E 002°10'0 0.0
2014-Sep-21 15:33N 41°21' E 002°10'0 0.0
2014-Sep-21 14:33N 41°21' E 002°10'0 0.0
2014-Sep-21 13:33N 41°21' E 002°10'0 0.0
2014-Sep-21 12:33N 41°21' E 002°10'0 0.0
2014-Sep-21 11:33N 41°21' E 002°10'0 0.0
2014-Sep-21 10:29N 41°21' E 002°10'0 0.0
2014-Sep-21 09:17N 41°21' E 002°10'0 0.0
2014-Sep-21 08:33N 41°21' E 002°10'0 0.0
2014-Sep-21 07:30N 41°21' E 002°10'0 0.0
2014-Sep-21 06:33N 41°21' E 002°10'0 0.0
2014-Sep-21 05:33N 41°21' E 002°10'0 0.0
2014-Sep-21 04:32N 41°21' E 002°10'0 0.0
2014-Sep-21 03:33N 41°21' E 002°10'0 0.0
2014-Sep-21 02:33N 41°21' E 002°10'0 0.0
2014-Sep-21 01:33N 41°21' E 002°10'2 2.1
2014-Sep-21 00:33N 41°19' E 002°10'7 7.2
2014-Sep-20 23:33N 41°12' E 002°07'1010.4
2014-Sep-20 22:33N 41°05' E 001°58'1010.0
2014-Sep-20 21:33N 40°57' E 001°50'1110.6
2014-Sep-20 20:33N 40°48' E 001°43'1111.1
2014-Sep-20 19:33N 40°39' E 001°35'1110.8
2014-Sep-20 18:33N 40°30' E 001°25'1111.2
2014-Sep-20 17:33N 40°24' E 001°14'1111.0
2014-Sep-20 16:33N 40°17' E 001°02'1110.7
2014-Sep-20 15:33N 40°11' E 000°51'1110.6
2014-Sep-20 14:32N 40°05' E 000°39'1010.6
2014-Sep-20 13:33N 39°58' E 000°29'3410.2
2014-Sep-20 10:14N 39°35' W 000°04'810.1
2014-Sep-20 09:25N 39°29' W 000°12'6 7.2
2014-Sep-20 08:33N 39°27' W 000°19'0 0.0
2014-Sep-20 07:32N 39°27' W 000°19'0 0.0
2014-Sep-20 06:25N 39°27' W 000°19'0 0.0
2014-Sep-20 05:28N 39°27' W 000°19'0 0.0
2014-Sep-20 04:34N 39°27' W 000°19'0 0.0
2014-Sep-20 03:33N 39°27' W 000°19'0 0.1
2014-Sep-20 02:27N 39°27' W 000°19'1 1.2
2014-Sep-20 01:32N 39°26' W 000°19'0 0.0
2014-Sep-20 00:32N 39°26' W 000°19'0 0.0
2014-Sep-19 23:31N 39°26' W 000°19'0 0.0
2014-Sep-19 22:28N 39°26' W 000°19'0 0.0
2014-Sep-19 21:30N 39°26' W 000°19'0 0.0
2014-Sep-19 20:33N 39°26' W 000°19'0 0.0
2014-Sep-19 19:29N 39°26' W 000°19'0 0.0
2014-Sep-19 18:32N 39°26' W 000°19'0 0.0
2014-Sep-19 17:32N 39°26' W 000°19'0 0.0
2014-Sep-19 16:28N 39°26' W 000°19'1 1.3
2014-Sep-19 15:33N 39°25' W 000°18'2311.2
2014-Sep-19 13:31N 39°09' E 000°03'1111.0
2014-Sep-19 12:32N 39°02' E 000°13'9211.1
2014-Sep-19 04:15N 37°58' E 001°38'811.4
2014-Sep-19 03:33N 37°52' E 001°45'  
2014-Sep-13 11:32N 36°46' E 003°06'0 0.0
2014-Sep-13 09:26N 36°46' E 003°06'8 7.1
2014-Sep-13 08:17N 36°52' E 002°59'1012.1
2014-Sep-13 07:30N 36°54' E 002°47'1111.8
2014-Sep-13 06:33N 36°56' E 002°33'1211.7
2014-Sep-13 05:34N 36°59' E 002°19'1211.6
2014-Sep-13 04:33N 37°00' E 002°05'1211.8
2014-Sep-13 03:33N 37°02' E 001°50'1111.1
2014-Sep-13 02:33N 37°06' E 001°37'1111.3
2014-Sep-13 01:33N 37°08' E 001°23'1111.5
2014-Sep-13 00:33N 37°10' E 001°09'1211.7
2014-Sep-12 23:33N 37°13' E 000°55'1111.6
2014-Sep-12 22:33N 37°16' E 000°41'1111.4
2014-Sep-12 21:33N 37°18' E 000°27'1111.3
2014-Sep-12 20:33N 37°20' E 000°13'  
Track history (hours):
 
Tides and Currents Weather Stations Pressure Air Temp Water Temp Dewpoint Dewpoint Depression Visibility Wind Speed Wind Dir Waves Ship Positions

Fortunia

Last reported at 2014-Sep-22 20:13 UTC. Time now 2014-Sep-22 22:23 UTC.
Position N 39°55' E 001°13'.

Length 121 m; draft 5.5 m.

Type: Ship. MMSI: 304010638.

Date/timePositionNaut miles runAvg speedWind from/ knotsBaromVisibWave heightAir tempDewpointWater temp
2014-Sep-22 20:13N 39°55' E 001°13'811.7
2014-Sep-22 19:33N 40°02' E 001°18'1111.4
2014-Sep-22 18:33N 40°12' E 001°25'1111.3
2014-Sep-22 17:33N 40°22' E 001°32'1111.1
2014-Sep-22 16:33N 40°32' E 001°39'1111.0
2014-Sep-22 15:33N 40°41' E 001°46'1111.3
2014-Sep-22 14:33N 40°51' E 001°53'1411.3
2014-Sep-22 13:19N 41°03' E 002°01'19 1.9
2014-Sep-22 03:08N 41°21' E 002°10'0 0.0
2014-Sep-22 01:19N 41°21' E 002°10'0 0.0
2014-Sep-21 23:12N 41°21' E 002°10'0 0.0
2014-Sep-21 21:30N 41°21' E 002°10'0 0.0
2014-Sep-21 20:29N 41°21' E 002°10'0 0.0
2014-Sep-21 18:31N 41°21' E 002°10'0 0.0
2014-Sep-21 17:33N 41°21' E 002°10'0 0.0
2014-Sep-21 16:33N 41°21' E 002°10'0 0.0
2014-Sep-21 15:33N 41°21' E 002°10'0 0.0
2014-Sep-21 14:33N 41°21' E 002°10'0 0.0
2014-Sep-21 13:33N 41°21' E 002°10'0 0.0
2014-Sep-21 12:33N 41°21' E 002°10'0 0.0
2014-Sep-21 11:33N 41°21' E 002°10'0 0.0
2014-Sep-21 10:29N 41°21' E 002°10'0 0.0
2014-Sep-21 09:17N 41°21' E 002°10'0 0.0
2014-Sep-21 08:33N 41°21' E 002°10'0 0.0
2014-Sep-21 07:30N 41°21' E 002°10'0 0.0
2014-Sep-21 06:33N 41°21' E 002°10'0 0.0
2014-Sep-21 05:33N 41°21' E 002°10'0 0.0
2014-Sep-21 04:32N 41°21' E 002°10'0 0.0
2014-Sep-21 03:33N 41°21' E 002°10'0 0.0
2014-Sep-21 02:33N 41°21' E 002°10'0 0.0
2014-Sep-21 01:33N 41°21' E 002°10'2 2.1
2014-Sep-21 00:33N 41°19' E 002°10'7 7.2
2014-Sep-20 23:33N 41°12' E 002°07'1010.4
2014-Sep-20 22:33N 41°05' E 001°58'1010.0
2014-Sep-20 21:33N 40°57' E 001°50'1110.6
2014-Sep-20 20:33N 40°48' E 001°43'1111.1
2014-Sep-20 19:33N 40°39' E 001°35'1110.8
2014-Sep-20 18:33N 40°30' E 001°25'1111.2
2014-Sep-20 17:33N 40°24' E 001°14'1111.0
2014-Sep-20 16:33N 40°17' E 001°02'1110.7
2014-Sep-20 15:33N 40°11' E 000°51'1110.6
2014-Sep-20 14:32N 40°05' E 000°39'1010.6
2014-Sep-20 13:33N 39°58' E 000°29'3410.2
2014-Sep-20 10:14N 39°35' W 000°04'810.1
2014-Sep-20 09:25N 39°29' W 000°12'6 7.2
2014-Sep-20 08:33N 39°27' W 000°19'0 0.0
2014-Sep-20 07:32N 39°27' W 000°19'0 0.0
2014-Sep-20 06:25N 39°27' W 000°19'0 0.0
2014-Sep-20 05:28N 39°27' W 000°19'0 0.0
2014-Sep-20 04:34N 39°27' W 000°19'0 0.0
2014-Sep-20 03:33N 39°27' W 000°19'0 0.1
2014-Sep-20 02:27N 39°27' W 000°19'1 1.2
2014-Sep-20 01:32N 39°26' W 000°19'0 0.0
2014-Sep-20 00:32N 39°26' W 000°19'0 0.0
2014-Sep-19 23:31N 39°26' W 000°19'0 0.0
2014-Sep-19 22:28N 39°26' W 000°19'0 0.0
2014-Sep-19 21:30N 39°26' W 000°19'0 0.0
2014-Sep-19 20:33N 39°26' W 000°19'0 0.0
2014-Sep-19 19:29N 39°26' W 000°19'0 0.0
2014-Sep-19 18:32N 39°26' W 000°19'0 0.0
2014-Sep-19 17:32N 39°26' W 000°19'0 0.0
2014-Sep-19 16:28N 39°26' W 000°19'1 1.3
2014-Sep-19 15:33N 39°25' W 000°18'2311.2
2014-Sep-19 13:31N 39°09' E 000°03'1111.0
2014-Sep-19 12:32N 39°02' E 000°13'9211.1
2014-Sep-19 04:15N 37°58' E 001°38'811.4
2014-Sep-19 03:33N 37°52' E 001°45'  
2014-Sep-13 11:32N 36°46' E 003°06'0 0.0
2014-Sep-13 09:26N 36°46' E 003°06'8 7.1
2014-Sep-13 08:17N 36°52' E 002°59'1012.1
2014-Sep-13 07:30N 36°54' E 002°47'1111.8
2014-Sep-13 06:33N 36°56' E 002°33'1211.7
2014-Sep-13 05:34N 36°59' E 002°19'1211.6
2014-Sep-13 04:33N 37°00' E 002°05'1211.8
2014-Sep-13 03:33N 37°02' E 001°50'1111.1
2014-Sep-13 02:33N 37°06' E 001°37'1111.3
2014-Sep-13 01:33N 37°08' E 001°23'1111.5
2014-Sep-13 00:33N 37°10' E 001°09'1211.7
2014-Sep-12 23:33N 37°13' E 000°55'1111.6
2014-Sep-12 22:33N 37°16' E 000°41'1111.4
2014-Sep-12 21:33N 37°18' E 000°27'1111.3
2014-Sep-12 20:33N 37°20' E 000°13'  

Dump ship's entire track history